1392940830823,2.56329
1392940890823,2.53290
1392940950823,2.54199
1392941010823,2.52449
1392941070823,2.54351
1392941130823,2.54036
1392941190823,2.53180
1392941250823,2.52253
1392941310823,2.51922
1392941370823,2.52710
1392941430823,2.51532
1392941490823,2.49451
1392941550823,2.51884
1392941610823,2.51838
1392941670823,2.53808
1392941730823,2.52378
1392941790823,2.51388
1392941850823,2.51185
1392941910823,2.49943
1392941970823,2.51587
1392942030823,2.52143
1392942090823,2.53165
1392942150823,2.52686
1392942210823,2.53905
1392942270823,2.51398
1392942330823,2.53174
1392942390823,2.53536
1392942450823,2.50892
1392942510823,2.52802
1392942570823,2.53289
1392942630823,2.48772
1392942690823,2.52342
1392942750823,2.50326
1392942810823,2.51491
1392942870823,2.50428
1392942930823,2.50510
1392942990823,2.52433
1392943050823,2.50049
1392943110823,2.49225
1392943170823,2.47308
1392943230823,2.48544
1392943290823,2.52005
1392943350823,2.51783
1392943410823,2.52941
1392943470823,2.50451
1392943530823,2.50221
1392943590823,2.51704
1392943650823,2.46678
1392943710823,2.52014
1392943770823,2.23041
1392943830823,2.51028
1392943890823,2.49844
1392943950823,2.51424
1392944010823,2.52594
1392944070823,2.47493
1392944130823,2.52329
1392944190823,2.50758
1392944250823,2.46631
1392944310823,2.56491
1392944370823,2.51453
1392944430834,2.48023
1392944490834,2.49281
1392944550834,2.51814
1392944610834,2.47870
1392944670834,2.48890
1392944730834,2.47365
1392944790834,2.49050
1392944850834,2.49054
1392944910834,2.48782
1392944970834,2.46685
1392945030834,2.46557
1392945090834,2.49822
1392945150834,2.46710
1392945210834,2.49015
1392945270834,2.49478
1392945330834,2.46381
1392945390834,2.47529
1392945450834,2.49451
1392945510834,2.48743
1392945570834,2.45922
1392945630834,2.46923
1392945690834,2.46219
1392945750834,2.56820
1392945810834,2.45259
1392945870834,2.44282
1392945930834,2.45188
1392945990834,2.49643
1392946050834,2.47680
1392946110834,2.43785
1392946170834,2.44416
1392946230834,2.45645
1392946290834,2.44349
1392946350834,2.47163
1392946410834,2.46194
1392946470834,2.43751
1392946530834,2.45319
1392946590834,2.44267
1392946650834,2.46970
1392946710834,2.48639
1392946770834,2.46965
1392946830834,2.44437
1392946890834,2.47152
1392946950834,2.40621
1392947010834,2.43614
1392947070834,2.44474
1392947130834,2.47540
1392947190834,2.46513
1392947250834,2.46528
1392947310834,2.44128
1392947370834,2.44875
1392947430834,2.46694
1392947490834,2.45276
1392947550834,2.45755
1392947610834,2.49210
1392947670834,2.46991
1392947730834,2.45563
1392947790834,2.43609
1392947850834,2.48858
1392947910834,2.43405
1392947970834,2.46023
1392948030845,2.46866
1392948090845,2.45786
1392948150845,2.46493
1392948210845,2.42576
1392948270845,2.42397
1392948330845,2.45744
1392948390845,2.45104
1392948450845,2.48141
1392948510845,2.47397
1392948570845,2.45988
1392948630845,2.45887
1392948690845,2.44619
1392948750845,2.49794
1392948810845,2.45573
1392948870845,2.46172
1392948930845,2.53554
1392948990845,2.47320
1392949050845,2.47165
1392949110845,2.46061
1392949170845,2.46826
1392949230845,2.45469
1392949290845,2.44774
1392949350845,2.45378
1392949410845,2.44563
1392949470845,2.45210
1392949530845,2.46096
1392949590845,2.45806
1392949650845,2.45653
1392949710845,2.45885
1392949770845,2.46444
1392949830845,2.48889
1392949890845,2.47330
1392949950845,2.45503
1392950010845,2.44422
1392950070845,2.48061
1392950130845,2.46665
1392950190845,2.47184
1392950250845,2.49508
1392950310845,2.46946
1392950370845,2.44151
1392950430845,2.48717
1392950490845,2.44418
1392950550845,2.46376
1392950610845,2.48606
1392950670845,2.47313
1392950730845,2.47184
1392950790845,2.47947
1392950850845,2.50095
1392950910845,2.48135
1392950970845,2.50482
1392951030845,2.49269
1392951090845,2.45957
1392951150845,2.47639
1392951210845,2.48108
1392951270845,2.48820
1392951330845,2.48411
1392951390845,2.49104
1392951450845,2.51812
1392951510845,2.47504
1392951570845,2.49383
1392951630856,2.49837
1392951690856,2.50956
1392951750856,2.49919
1392951810856,2.49108
1392951870856,2.47708
1392951930856,2.51429
1392951990856,2.48712
1392952050856,2.49497
1392952110856,2.50089
1392952170856,2.49884
1392952230856,2.52798
1392952290856,2.52444
1392952350856,2.50113
1392952410856,2.51844
1392952470856,2.48846
1392952530856,2.50715
1392952590856,2.52733
1392952650856,2.53238
1392952710856,2.54694
1392952770856,2.53806
1392952830856,2.49697
1392952890856,2.53051
1392952950856,2.49511
1392953010856,2.54492
1392953070856,2.50797
1392953130856,2.52517
1392953190856,2.52576
1392953250856,2.49942
1392953310856,2.50470
1392953370856,2.49976
1392953430856,2.49379
1392953490856,2.49597
1392953550856,2.48936
1392953610856,2.52002
1392953670856,2.51614
1392953730856,2.51241
1392953790856,2.53914
1392953850856,2.52708
1392953910856,2.49282
1392953970856,2.50970
1392954030856,2.50262
1392954090856,2.52095
1392954150856,2.52272
1392954210856,2.52501
1392954270856,2.52510
1392954330856,2.50168
1392954390856,2.52023
1392954450856,2.53217
1392954510856,2.51907
1392954570856,2.53749
1392954630856,2.51914
1392954690856,2.50081
1392954750856,2.53002
1392954810856,2.53264
1392954870856,2.52216
1392954930856,2.51486
1392954990856,2.50775
1392955050856,2.53518
1392955110856,2.51636
1392955170856,2.51768
1392955230867,2.50380
1392955290867,2.53940
1392955350867,2.59291
1392955410867,2.52941
1392955470867,2.54875
1392955530867,2.54037
1392955590867,2.51761
1392955650867,2.52007
1392955710867,2.53009
1392955770867,2.52526
1392955830867,2.54058
1392955890867,2.52278
1392955950867,2.52929
1392956010867,2.53428
1392956070867,2.52463
1392956130867,2.53787
1392956190867,2.52505
1392956250867,2.53581
1392956310867,2.53064
1392956370867,2.55506
1392956430867,2.49871
1392956490867,2.52914
1392956550867,2.55731
1392956610867,2.51196
1392956670867,2.52308
1392956730867,2.53374
1392956790867,2.53789
1392956850867,2.52881
1392956910867,2.57381
1392956970867,2.55249
1392957030867,2.53525
1392957090867,2.52824
1392957150867,2.51493
1392957210867,2.55124
1392957270867,2.55527
1392957330867,2.55812
1392957390867,2.53504
1392957450867,2.56915
1392957510867,2.56970
1392957570867,2.54410
1392957630867,2.56670
1392957690867,2.56226
1392957750867,2.56457
1392957810867,2.54510
1392957870867,2.57205
1392957930867,2.57756
1392957990867,2.57415
1392958050867,2.56776
1392958110867,2.55420
1392958170867,2.54237
1392958230867,2.56462
1392958290867,2.57690
1392958350867,2.56548
1392958410867,2.53306
1392958470867,2.57069
1392958530867,2.57791
1392958590867,2.54774
1392958650867,2.58175
1392958710867,2.57426
1392958770867,2.57847
1392958830878,2.58205
1392958890878,2.55876
1392958950878,2.58775
1392959010878,2.55017
1392959070878,2.56945
1392959130878,2.58525
1392959190877,2.54674
1392959250877,2.55763
1392959310877,2.56756
1392959370877,2.59784
1392959430877,2.55736
1392959490878,2.55464
1392959550878,2.57150
1392959610878,2.55701
1392959670878,2.58026
1392959730878,2.59484
1392959790878,2.57873
1392959850878,2.55781
1392959910878,2.63567
1392959970878,2.55753
1392960030878,2.58612
1392960090878,2.59461
1392960150878,2.57769
1392960210878,2.56602
1392960270878,2.55747
1392960330878,2.59536
1392960390878,2.59430
1392960450878,2.58865
1392960510877,2.58580
1392960570877,2.61073
1392960630877,2.59823
1392960690877,2.58877
1392960750877,2.57042
1392960810878,2.61088
1392960870878,2.59562
1392960930878,2.57025
1392960990878,2.61079
1392961050878,2.59977
1392961110878,2.60490
1392961170878,2.58936
1392961230878,2.59683
1392961290878,2.58032
1392961350878,2.58669
1392961410878,2.57790
1392961470878,2.57120
1392961530878,2.60569
1392961590878,2.64470
1392961650878,2.58367
1392961710878,2.60033
1392961770878,2.60736
1392961830878,2.59397
1392961890877,2.61208
1392961950877,2.62343
1392962010877,2.59779
1392962070877,2.59636
1392962130877,2.57833
1392962190878,2.61356
1392962250878,2.61491
1392962310878,2.60516
1392962370878,2.60329
1392962430888,2.60440
1392962490888,2.58241
1392962550888,2.55382
1392962610888,2.61953
1392962670888,2.58660
1392962730888,2.58123
1392962790888,2.58980
1392962850888,2.61013
1392962910888,2.58874
1392962970888,2.60110
1392963030888,2.59862
1392963090888,2.59086
1392963150888,2.58545
1392963210888,2.58563
1392963270888,2.58802
1392963330889,2.55634
1392963390889,2.56117
1392963450889,2.58625
1392963510889,2.52187
1392963570889,2.47873
1392963630888,2.59088
1392963690888,2.84297
1392963750888,2.59398
1392963810888,2.56792
1392963870888,2.58854
1392963930888,2.60532
1392963990888,2.58082
1392964050888,2.56815
1392964110888,2.61241
1392964170888,2.57620
1392964230888,2.56462
1392964290888,2.56351
1392964350888,2.57704
1392964410888,2.56870
1392964470888,2.59619
1392964530888,2.51192
1392964590888,2.57756
1392964650889,2.59345
1392964710889,2.57422
1392964770889,2.57168
1392964830889,2.61497
1392964890889,2.56379
1392964950889,2.58971
1392965010888,2.60968
1392965070888,2.58216
1392965130888,2.57951
1392965190888,2.58534
1392965250888,2.58367
1392965310888,2.58979
1392965370888,2.59964
1392965430888,2.59649
1392965490888,2.60301
1392965550888,2.55217
1392965610888,2.59628
1392965670888,2.58302
1392965730888,2.55774
1392965790888,2.59568
1392965850888,2.66791
1392965910888,2.58054
1392965970888,2.58680
1392966030899,2.60258
1392966090899,2.59123
1392966150899,2.58517
1392966210899,2.59582
1392966270899,2.58836
1392966330899,2.58408
1392966390899,2.57960
1392966450900,2.57120
1392966510900,2.61956
1392966570900,2.56385
1392966630900,2.59231
1392966690900,2.56428
1392966750899,2.57629
1392966810899,2.58903
1392966870899,2.59088
1392966930899,2.58030
1392966990899,2.58677
1392967050899,2.56835
1392967110899,2.57262
1392967170899,2.57323
1392967230899,2.58857
1392967290899,2.56531
1392967350899,2.60113
1392967410899,2.59457
1392967470899,2.59166
1392967530899,2.57306
1392967590899,2.58125
1392967650899,2.60478
1392967710899,2.60103
1392967770900,2.57033
1392967830900,2.58157
1392967890900,2.60524
1392967950900,2.61375
1392968010900,2.58860
1392968070899,2.60886
1392968130899,2.59451
1392968190899,2.59645
1392968250899,2.60053
1392968310899,2.60322
1392968370899,2.57774
1392968430899,2.58276
1392968490899,2.59965
1392968550899,2.60886
1392968610899,2.56439
1392968670899,2.57316
1392968730899,2.60298
1392968790899,2.61668
1392968850899,2.57525
1392968910899,2.57390
1392968970899,2.60018
1392969030899,2.60574
1392969090899,2.59997
1392969150900,2.57183
1392969210900,2.57328
1392969270900,2.59748
1392969330900,2.58527
1392969390900,2.59557
1392969450899,2.59818
1392969510899,2.62723
1392969570899,2.67841
1392969630911,2.61056
1392969690911,2.59410
1392969750911,2.58343
1392969810910,2.58103
1392969870910,2.60324
1392969930911,2.56582
1392969990911,2.58895
1392970050911,2.59144
1392970110911,2.60740
1392970170911,2.57136
1392970230911,2.56952
1392970290911,2.57341
1392970350911,2.62476
1392970410911,2.60556
1392970470911,2.58300
1392970530911,2.60440
1392970590911,2.58986
1392970650911,2.60167
1392970710911,2.58908
1392970770911,2.57760
1392970830911,2.60863
1392970890911,2.59190
1392970950911,2.56906
1392971010911,2.55445
1392971070911,2.58670
1392971130911,2.57981
1392971190910,2.57129
1392971250911,2.55743
1392971310911,2.57813
1392971370911,2.57433
1392971430911,2.58857
1392971490911,2.55222
1392971550911,2.56588
1392971610911,2.55266
1392971670911,2.56492
1392971730911,2.56409
1392971790911,2.56240
1392971850911,2.54681
1392971910911,2.58464
1392971970911,2.59291
1392972030911,2.57983
1392972090911,2.60243
1392972150911,2.59328
1392972210911,2.56835
1392972270911,2.56052
1392972330911,2.56006
1392972390911,2.53332
1392972450911,2.65976
1392972510910,2.60487
1392972570910,2.53551
1392972630911,2.59971
1392972690911,2.54429
1392972750911,2.57456
1392972810911,2.54133
1392972870911,2.57535
1392972930911,2.57763
1392972990911,2.57324
1392973050911,2.59205
1392973110911,2.56252
1392973170911,2.53619
1392973230922,2.55581
1392973290922,2.55604
1392973350922,2.56961
1392973410922,2.56702
1392973470922,2.53738
1392973530922,2.55250
1392973590922,2.54670
1392973650922,2.57243
1392973710922,2.55634
1392973770922,2.55771
1392973830922,2.56549
1392973890922,2.58331
1392973950922,2.57763
1392974010922,2.58321
1392974070922,2.55052
1392974130922,2.55028
1392974190922,2.57505
1392974250922,2.57245
1392974310922,2.56007
1392974370922,2.53091
1392974430922,2.56928
1392974490922,2.57283
1392974550922,2.57269
1392974610922,2.54232
1392974670922,2.54272
1392974730922,2.55352
1392974790922,2.55139
1392974850922,2.57177
1392974910922,2.55772
1392974970922,2.55888
1392975030922,2.55606
1392975090922,2.55033
1392975150922,2.55779
1392975210922,2.57518
1392975270922,2.52995
1392975330922,2.53056
1392975390922,2.55879
1392975450922,2.55048
1392975510922,2.55853
1392975570922,2.55676
1392975630922,2.54062
1392975690922,2.53872
1392975750922,2.55261
1392975810922,2.56114
1392975870922,2.56202
1392975930922,2.54457
1392975990922,2.54248
1392976050922,2.52886
1392976110922,2.54732
1392976170922,2.53680
1392976230922,2.55869
1392976290922,2.54732
1392976350922,2.54557
1392976410922,2.54292
1392976470922,2.54355
1392976530922,2.53837
1392976590922,2.54699
1392976650922,2.57101
1392976710922,2.53685
1392976770922,2.54174
1392976830933,2.54040
1392976890933,2.55415
1392976950933,2.54330
1392977010933,2.57254
1392977070933,2.55871
1392977130933,2.56397
1392977190933,2.55786
1392977250933,2.56253
1392977310933,2.53877
1392977370933,2.53696
1392977430933,2.54894
1392977490933,2.51346
1392977550933,2.52840
1392977610933,2.51915
1392977670933,2.53392
1392977730933,2.54324
1392977790933,2.53606
1392977850933,2.53377
1392977910933,2.51718
1392977970933,2.53578
1392978030933,2.53390
1392978090933,2.55907
1392978150933,2.55326
1392978210933,2.55007
1392978270933,2.57137
1392978330933,2.55891
1392978390933,2.53794
1392978450933,2.52250
1392978510933,2.57520
1392978570933,2.55547
1392978630933,2.54856
1392978690933,2.54662
1392978750933,2.54441
1392978810933,2.56708
1392978870933,2.53556
1392978930933,2.56504
1392978990933,2.52611
1392979050933,2.53584
1392979110933,2.54676
1392979170933,2.54103
1392979230933,2.55504
1392979290933,2.54318
1392979350933,2.54732
1392979410933,2.55241
1392979470933,2.53740
1392979530933,2.55401
1392979590933,2.57449
1392979650933,2.56818
1392979710933,2.54251
1392979770933,2.54159
1392979830933,2.57003
1392979890933,2.59017
1392979950933,2.57008
1392980010933,2.57266
1392980070933,2.54119
1392980130933,2.54071
1392980190933,2.54888
1392980250933,2.58663
1392980310933,2.59343
1392980370933,2.53284
1392980430944,2.57638
1392980490943,2.55807
1392980550943,2.55042
1392980610943,2.55824
1392980670943,2.55353
1392980730943,2.63881
1392980790944,2.52898
1392980850944,2.56646
1392980910944,2.57048
1392980970944,2.54499
1392981030944,2.58107
1392981090944,2.56644
1392981150944,2.55344
1392981210944,2.56834
1392981270944,2.55956
1392981330944,2.56916
1392981390944,2.56528
1392981450944,2.54994
1392981510944,2.52982
1392981570944,2.56332
1392981630944,2.57917
1392981690944,2.52414
1392981750944,2.58903
1392981810943,2.56642
1392981870943,2.55975
1392981930943,2.55721
1392981990943,2.62068
1392982050943,2.58771
1392982110943,2.57234
1392982170944,2.58752
1392982230944,2.61460
1392982290944,2.60121
1392982350944,2.56226
1392982410944,2.57368
1392982470944,2.57810
1392982530944,2.58785
1392982590944,2.56965
1392982650944,2.58668
1392982710944,2.56357
1392982770944,2.59222
1392982830944,2.58203
1392982890944,2.58654
1392982950944,2.57335
1392983010944,2.58793
1392983070944,2.57662
1392983130944,2.60044
1392983190943,2.57904
1392983250943,2.57633
1392983310943,2.58311
1392983370943,2.57967
1392983430943,2.56762
1392983490944,2.57558
1392983550944,2.57618
1392983610944,2.55403
1392983670944,2.56455
1392983730944,2.57927
1392983790944,2.57703
1392983850944,2.57354
1392983910944,2.58691
1392983970944,2.54957
1392984030954,2.60452
1392984090954,2.55642
1392984150954,2.56484
1392984210954,2.56460
1392984270954,2.54244
1392984330954,2.57803
1392984390954,2.58160
1392984450954,2.58137
1392984510954,2.56283
1392984570954,2.59130
1392984630954,2.58706
1392984690954,2.54555
1392984750954,2.58708
1392984810954,2.57534
1392984870954,2.57507
1392984930954,2.57612
1392984990954,2.57569
1392985050954,2.55093
1392985110954,2.56581
1392985170954,2.59915
1392985230954,2.57006
1392985290954,2.54435
1392985350954,2.59265
1392985410954,2.57041
1392985470954,2.54911
1392985530954,2.57294
1392985590954,2.54894
1392985650954,2.54589
1392985710954,2.56751
1392985770954,2.58210
1392985830954,2.54165
1392985890954,2.56690
1392985950954,2.57494
1392986010954,2.56632
1392986070954,2.57527
1392986130954,2.56175
1392986190954,2.57181
1392986250954,2.56880
1392986310954,2.55765
1392986370954,2.56350
1392986430954,2.52546
1392986490954,2.57507
1392986550954,2.54969
1392986610954,2.54304
1392986670954,2.60929
1392986730954,2.59757
1392986790954,2.58014
1392986850954,2.50757
1392986910954,2.55443
1392986970954,2.55239
1392987030954,2.57202
1392987090954,2.56117
1392987150954,2.56882
1392987210954,2.54692
1392987270954,2.54863
1392987330954,2.56434
1392987390954,2.55643
1392987450954,2.58651
1392987510954,2.56574
1392987570954,2.56947
1392987630965,2.56626
1392987690965,2.56613
1392987750965,2.54132
1392987810965,2.57344
1392987870965,2.56134
1392987930965,2.55034
1392987990965,2.54986
1392988050965,2.58382
1392988110965,2.54582
1392988170965,2.56272
1392988230965,2.53860
1392988290965,2.55513
1392988350965,2.56476
1392988410965,2.54620
1392988470965,2.56881
1392988530965,2.56851
1392988590965,2.55363
1392988650965,2.53684
1392988710965,2.59834
1392988770965,2.57209
1392988830965,2.57802
1392988890965,2.51578
1392988950965,2.53584
1392989010965,2.56820
1392989070965,2.58039
1392989130965,2.55020
1392989190965,2.56370
1392989250965,2.54475
1392989310965,2.55695
1392989370965,2.55779
1392989430965,2.57134
1392989490965,2.75962
1392989550965,2.58900
1392989610965,2.52472
1392989670965,2.57593
1392989730965,2.57962
1392989790965,2.57468
1392989850965,2.57397
1392989910965,2.56615
1392989970965,2.54408
1392990030965,2.58459
1392990090965,2.58728
1392990150965,2.57026
1392990210965,2.53091
1392990270965,2.57323
1392990330965,2.57228
1392990390965,2.57879
1392990450965,2.55115
1392990510965,2.55784
1392990570965,2.57414
1392990630965,2.57267
1392990690965,2.57622
1392990750965,2.54202
1392990810965,2.57654
1392990870965,2.58933
1392990930965,2.55740
1392990990965,2.59122
1392991050965,2.58538
1392991110965,2.56088
1392991170965,2.58767
1392991230976,2.57577
1392991290976,2.55584
1392991350976,2.55055
1392991410976,2.53813
1392991470976,2.55524
1392991530976,2.56973
1392991590976,2.57852
1392991650976,2.55904
1392991710976,2.59857
1392991770976,2.56218
1392991830976,2.55342
1392991890976,2.55992
1392991950976,2.57906
1392992010976,2.56354
1392992070976,2.55767
1392992130976,2.57065
1392992190976,2.58280
1392992250976,2.56187
1392992310976,2.58562
1392992370976,2.59837
1392992430976,2.55464
1392992490976,2.57619
1392992550976,2.57755
1392992610976,2.56478
1392992670976,2.55549
1392992730976,2.57469
1392992790976,2.57720
1392992850976,2.57227
1392992910976,2.53602
1392992970976,2.56379
1392993030976,2.58836
1392993090976,2.56998
1392993150976,2.57493
1392993210976,2.57933
1392993270976,2.55962
1392993330976,2.54129
1392993390976,2.57386
1392993450976,2.58366
1392993510976,2.55852
1392993570976,2.59034
1392993630976,2.57479
1392993690976,2.56857
1392993750976,2.58530
1392993810976,2.57630
1392993870976,2.58424
1392993930976,2.55035
1392993990976,2.54403
1392994050976,2.56402
1392994110976,2.58191
1392994170976,2.56211
1392994230976,2.57586
1392994290976,2.57104
1392994350976,2.57845
1392994410976,2.55464
1392994470976,2.57581
1392994530976,2.60031
1392994590976,2.58360
1392994650976,2.54144
1392994710976,2.55181
1392994770976,2.58623
1392994830987,2.56972
1392994890987,2.53847
1392994950987,2.56168
1392995010987,2.58010
1392995070987,2.54289
1392995130987,2.57848
1392995190987,2.56140
1392995250987,2.53689
1392995310987,2.65715
1392995370987,2.56188
1392995430987,2.55221
1392995490987,2.56766
1392995550987,2.55473
1392995610987,2.53860
1392995670987,2.55854
1392995730987,2.57646
1392995790987,2.53932
1392995850987,2.56035
1392995910987,2.54432
1392995970987,2.56815
1392996030987,2.56154
1392996090987,2.55655
1392996150987,2.55158
1392996210987,2.55652
1392996270987,2.52159
1392996330987,2.56436
1392996390987,2.54495
1392996450987,2.57667
1392996510987,2.54756
1392996570987,2.55123
1392996630987,2.56534
1392996690987,2.54179
1392996750987,2.56994
1392996810987,2.55996
1392996870987,2.56932
1392996930987,2.56633
1392996990987,2.55114
1392997050987,2.57393
1392997110987,2.59520
1392997170987,2.54521
1392997230987,2.54604
1392997290987,2.55623
1392997350987,2.56961
1392997410987,2.56578
1392997470987,2.55745
1392997530987,2.57445
1392997590987,2.53113
1392997650987,2.55487
1392997710987,2.54434
1392997770987,2.52093
1392997830987,2.54485
1392997890987,2.55585
1392997950987,2.54183
1392998010987,2.55926
1392998070987,2.53880
1392998130987,2.55158
1392998190987,2.54265
1392998250987,2.55734
1392998310987,2.54208
1392998370987,2.53344
1392998430997,2.63592
1392998490997,2.52437
1392998550997,2.51972
1392998610997,2.53666
1392998670997,2.54834
1392998730997,2.55496
1392998790997,2.54943
1392998850997,2.55582
1392998910997,2.56689
1392998970997,2.54050
1392999030997,2.55055
1392999090997,2.56801
1392999150997,2.54502
1392999210997,2.54453
1392999270997,2.56057
1392999330997,2.56020
1392999390997,2.54672
1392999450997,2.53745
1392999510997,2.51339
1392999570997,2.28923
1392999630997,2.54227
1392999690997,2.54791
1392999750997,2.51727
1392999810997,2.55793
1392999870997,2.52471
1392999930997,2.54430
1392999990997,2.53685
1393000050997,2.55151
1393000110997,2.52639
1393000170997,2.53268
1393000230997,2.53528
1393000290997,2.54867
1393000350997,2.50435
1393000410997,2.52578
1393000470997,2.57132
1393000530997,2.52615
1393000590997,2.54225
1393000650997,2.53637
1393000710997,2.55642
1393000770997,2.59894
1393000830997,2.54183
1393000890997,2.53154
1393000950997,2.55073
1393001010997,2.53220
1393001070997,2.53456
1393001130997,2.52920
1393001190997,2.52690
1393001250997,2.53427
1393001310997,2.54954
1393001370997,2.51968
1393001430997,2.53596
1393001490997,2.53090
1393001550997,2.53942
1393001610997,2.51706
1393001670997,2.55780
1393001730997,2.52203
1393001790997,2.54422
1393001850997,2.38026
1393001910997,2.53853
1393001970997,2.55583
1393002031008,2.54844
1393002091008,2.61704
1393002151008,2.55165
1393002211008,2.57090
1393002271008,2.52163
1393002331008,2.52853
1393002391008,2.52927
1393002451008,2.50886
1393002511008,2.50148
1393002571008,2.55483
1393002631008,2.49960
1393002691008,2.53611
1393002751008,2.53774
1393002811008,2.54174
1393002871008,2.52049
1393002931008,2.57251
1393002991008,2.54039
1393003051008,2.53883
1393003111008,2.53519
1393003171008,2.56205
1393003231008,2.52912
1393003291008,2.57324
1393003351008,2.55701
1393003411008,2.56173
1393003471008,2.54409
1393003531008,2.56652
1393003591008,2.53319
1393003651008,2.54620
1393003711008,2.52750
1393003771008,2.53814
1393003831008,2.53194
1393003891008,2.52992
1393003951008,2.52896
1393004011008,2.53684
1393004071008,2.52199
1393004131008,2.55093
1393004191008,2.56806
1393004251008,2.54731
1393004311008,2.58181
1393004371008,2.57605
1393004431008,2.56201
1393004491008,2.54213
1393004551008,2.56708
1393004611008,2.55997
1393004671008,2.57506
1393004731008,2.58183
1393004791008,2.52832
1393004851008,2.53453
1393004911008,2.55892
1393004971008,2.55458
1393005031008,2.55221
1393005091008,2.57271
1393005151008,2.59569
1393005211008,2.52530
1393005271008,2.52047
1393005331008,2.53815
1393005391008,2.54587
1393005451008,2.56751
1393005511008,2.56345
1393005571008,2.61152
1393005631018,2.58152
1393005691018,2.53678
1393005751018,2.56993
1393005811018,2.58499
1393005871018,2.56037
1393005931018,2.56375
1393005991018,2.56185
1393006051018,2.59248
1393006111018,2.57885
1393006171018,2.54610